User: anonymous   Login
Location: Dürabuch
(48.2640°N, 11.2185°E)
Time: 20:06:19
(UTC+00:00)
Language:

UNK - Orbit

View from above orbital plane
View from above orbital plane
View from above satellite
View from above satellite

Ground track
Ground track

The orbit data is extracted from the following two-line orbital elements,

1 27940U 03042B   24199.44017897  .00001482  00000-0  27113-3 0  9998
2 27940  98.3180 351.0338 0014182  44.1314 316.1019 14.67341602111850
Epoch (UTC): 17 July 2024 10:33:51
Eccentricity: 0.0014182
inclination: 98.3180°
perigee height: 659 km
apogee height: 679 km
right ascension of ascending node: 351.0338°
argument of perigee: 44.1314°
revolutions per day: 14.67341602
mean anomaly at epoch: 316.1019°
orbit number at epoch: 11185

The dashed part of the orbit path shows where the satellite is in the earth's shadow,  

DLR